OVERFALLS Weather Reports


time (UTC)temp
F
wind
direction
speed
knots
gust
knots
rain 1hr
in
rain 24hr
in
rain mn
in
humidity
%
barometer
mb
20260505021541 63 167 4.3 11.3 0.00 0.00 0.00 71 1012.4
20260505020041 63 175 6.1 12.2 0.00 0.00 0.00 71 1012.6
20260505014600 63 207 6.1 13.9 0.00 0.00 0.00 70 1012.5
20260505013044 63 169 5.2 10.4 0.00 0.00 0.00 69 1012.5
20260505011548 63 171 3.5 12.2 0.00 0.00 0.00 68 1012.4
20260505010045 63 194 5.2 7.8 0.00 0.00 0.00 67 1012.4
20260505004542 64 188 5.2 11.3 0.00 0.00 0.00 66 1012.4
20260505003046 64 165 3.5 7.8 0.00 0.00 0.00 66 1012.4
20260505001546 65 194 4.3 9.6 0.00 0.00 0.00 65 1012.4
20260505000049 66 188 4.3 10.4 0.00 0.00 0.00 62 1012.2
20260504234542 67 204 4.3 13.0 0.00 0.00 0.00 60 1012.0
20260504233047 67 195 6.1 13.0 0.00 0.00 0.00 59 1011.9
20260504231542 68 196 7.0 14.8 0.00 0.00 0.00 56 1011.7
20260504230050 68 360 8.7 19.1 0.00 0.00 0.00 53 1011.8
20260504224547 69 360 8.7 18.2 0.00 0.00 0.00 51 1011.7
20260504223040 73 360 6.1 16.5 0.00 0.00 0.00 36 1011.8
20260504221543 73 360 7.0 15.6 0.00 0.00 0.00 35 1011.6
20260504220049 74 360 7.0 12.2 0.00 0.00 0.00 33 1011.7
20260504214553 74 360 7.8 13.9 0.00 0.00 0.00 31 1011.8
20260504213049 74 360 7.8 15.6 0.00 0.00 0.00 32 1011.7
20260504211542 74 360 8.7 17.4 0.00 0.00 0.00 32 1011.8
20260504210055 74 360 8.7 14.8 0.00 0.00 0.00 32 1011.8
20260504204557 75 360 6.1 16.5 0.00 0.00 0.00 33 1011.7
20260504203044 74 360 9.6 16.5 0.00 0.00 0.00 32 1011.8
20260504201540 74 360 7.0 14.8 0.00 0.00 0.00 32 1011.8
20260504200043 75 360 5.2 13.0 0.00 0.00 0.00 32 1011.9
20260504194542 75 360 6.1 13.0 0.00 0.00 0.00 32 1012.1
20260504193043 75 360 6.1 12.2 0.00 0.00 0.00 33 1012.3
20260504191542 75 251 6.1 14.8 0.00 0.00 0.00 32 1012.4
20260504190041 75 224 2.6 13.9 0.00 0.00 0.00 32 1012.6
20260504184543 75 251 4.3 10.4 0.00 0.00 0.00 32 1012.7
20260504183041 74 238 6.1 12.2 0.00 0.00 0.00 32 1012.8
20260504181541 74 245 7.0 10.4 0.00 0.00 0.00 31 1013.1
20260504180041 73 209 6.1 13.9 0.00 0.00 0.00 33 1013.0
20260504174541 73 212 7.0 17.4 0.00 0.00 0.00 32 1013.2
20260504173051 73 184 5.2 14.8 0.00 0.00 0.00 32 1013.3
20260504171545 73 261 7.0 16.5 0.00 0.00 0.00 33 1013.4
20260504081544 50 264 5.2 13.9 0.00 0.00 0.00 75 1016.7
20260504044546 49 243 3.5 7.0 0.00 0.00 0.00 58 1016.6
20260504043053 49 193 3.5 6.1 0.00 0.00 0.00 58 1016.6
20260504041549 49 190 2.6 7.0 0.00 0.00 0.00 58 1016.4
20260504040046 49 201 3.5 6.1 0.00 0.00 0.00 57 1016.2
20260504034547 49 205 2.6 6.1 0.00 0.00 0.00 56 1016.1
20260504033050 49 196 2.6 5.2 0.00 0.00 0.00 55 1016.0
20260504031544 50 360 2.6 5.2 0.00 0.00 0.00 55 1016.0
20260504030041 50 360 3.5 5.2 0.00 0.00 0.00 54 1016.0
20260504024546 50 194 1.7 4.3 0.00 0.00 0.00 54 1016.0
20260504023042 50 203 2.6 6.1 0.00 0.00 0.00 53 1015.9